CZ-3B DEB, 40851

Orbit data source: Space-Track

CZ-3B DEB, 40851 is space debris in HEO originally from a launch on Mon, 19 Dec 2011 UTC launched from the Xichang Space Center, China (XSC). Debris objects in space refer to the collection of defunct objects orbiting the Earth. Examples of debris include non-operational satellites, rocket bodies, and fragments generated from explosions, collisions, or faulty payload assembly.

Loading next visibility...
Identifier
40851, 2011-077AG
Orbit
HEO
Country
Flag of CNCN / PRC
Related business
Manufacturer
CALT
Mission
Spacecraft
Bus & Motor
Unknown
Mass
Unknown
Launch date (UTC)
2011-12-19 (14 years ago)
Launch vehicle
Unknown
Launch site
Xichang Space Center, China (XSC)
Object type
Payload
Rocket body
Debris
Shape & HBR
Unknown shape, 0.2 m
Radar Cross Section
Medium (>0.1 m² and <1 m²)

Expand to show TLE details & history
Last TLE update: 6 months ago

TLE from 6 months ago
0 CZ-3B DEB
1 40851U 11077AG  25226.66171691 -.00000127  00000-0 -38036-2 0  9992
2 40851  25.7968 101.8514 7330917 226.1575  43.4845  1.90202340 80383
Epoch: 2025-08-14T15:52Z
TLE epoch observation values (Epoch: 2025-08-14T15:52:52.341Z)
Latitude
0.00001°
Longitude
-99.56263°
Altitude
19,504.233 km
Speed
4.039 km/s
True Right ascension
06h 47m 54s
True Declination
0° 00' 00"
Sunlit
Object was in daylight at epoch
Visualization orbit readout
Latitude
Unknown
Longitude
Unknown
Altitude
Unknown
Speed
Unknown
Apparent Right ascension
Unknown
Apparent Declination
Unknown
Sunlit
N/A
Visualization observer readout
Local Sidereal Time
17:05:22
Azimuth
Unknown
Elevation
Unknown
Doppler factor
Unknown
Orbital elements
Apogee altitude
41,316.612 km
Perigee altitude
967.189 km
Semi-major axis
27,520.038 km
Eccentricity
0.73309
Inclination
25.7968°
RAAN
101.8514°
Arg. of periapsis
226.1575°
True anomaly
133.88515°
Mean anomaly
43.4845°
Eccentric anomaly
85.34926°
Mean motion
0.47541 °/min
Orbital period
757.24 mins
BSTAR
-0.0038036
Loading maneuver chart data...
Computing Atmospheric mass density...
Loading historical data...
Loading historical data...
Loading historical data...
Loading historical data...
Loading historical data...
Loading historical data...
Loading historical data...

Documentation

Showing up to 5 results
|